�N����,����,�~����,�C��,���x,�C��,����,���ϕ���,�ő�u�ԕ���,�ő厞����,���˗�,�I�_���x,�n�����x,�ő啗���N��,DTYPE
"16/08/29","00:10",0.0,25.8,78.9,989.2,76.1,0.8,2.0,82.9,0.00,21.9,25.0,"00:01:12",1
"16/08/29","00:20",0.0,25.9,78.4,989.2,35.1,0.7,2.1,59.6,0.00,21.9,25.0,"00:14:16",1
"16/08/29","00:30",0.0,25.9,78.1,988.9,60.2,0.6,1.8,131.7,0.00,21.8,25.0,"00:20:08",1
"16/08/29","00:40",0.0,26.0,78.0,988.5,43.8,0.6,1.7,72.0,0.00,21.9,25.0,"00:38:00",1
"16/08/29","00:50",0.0,26.0,77.9,988.5,40.9,0.5,1.2,85.3,0.00,21.9,24.9,"00:40:08",1
"16/08/29","01:00",0.0,26.1,77.7,988.5,47.1,0.7,1.9,104.1,0.00,21.9,24.7,"00:51:44",1
"16/08/29","01:10",0.0,26.0,77.6,988.5,30.2,0.6,1.7,50.6,0.00,21.8,24.9,"01:01:52",1
"16/08/29","01:20",0.0,26.0,77.8,988.0,26.8,0.5,1.6,111.1,0.00,21.9,25.0,"01:18:40",1
"16/08/29","01:30",0.0,25.9,78.2,987.8,50.5,0.5,1.4,73.0,0.00,21.9,24.9,"01:26:40",1
"16/08/29","01:40",0.0,25.7,78.7,988.0,7.3,0.5,2.0,349.1,0.00,21.8,24.7,"01:38:00",1
"16/08/29","01:50",0.0,25.8,79.0,988.0,11.3,0.5,1.4,25.9,0.00,21.9,25.0,"01:41:36",1
"16/08/29","02:00",0.0,25.8,78.7,987.3,10.3,0.7,2.1,7.9,0.00,21.9,24.9,"01:58:16",1
"16/08/29","02:10",0.0,26.0,78.8,987.5,26.0,0.7,2.5,74.8,0.00,22.1,24.9,"02:02:56",1
"16/08/29","02:20",0.0,25.9,78.6,987.3,49.3,0.5,1.3,77.5,0.00,21.9,25.0,"02:18:08",1
"16/08/29","02:30",0.0,26.0,78.5,987.3,35.8,0.5,1.4,76.3,0.00,22.0,24.9,"02:20:08",1
"16/08/29","02:40",0.0,26.0,78.5,987.3,72.2,0.6,1.4,110.7,0.00,22.0,24.9,"02:33:36",1
"16/08/29","02:50",0.0,26.1,78.4,987.0,51.7,0.5,1.3,41.0,0.00,22.1,24.9,"02:40:08",1
"16/08/29","03:00",0.0,26.1,78.0,987.3,67.0,0.6,1.7,67.1,0.00,22.0,25.0,"02:54:00",1
"16/08/29","03:10",0.0,26.2,77.6,987.0,50.0,0.8,2.6,97.2,0.00,22.0,24.6,"03:08:00",1
"16/08/29","03:20",0.0,26.3,76.7,986.8,55.3,0.8,2.1,154.1,0.00,21.9,24.8,"03:17:44",1
"16/08/29","03:30",0.0,26.4,76.7,986.8,77.4,0.8,1.9,136.9,0.00,22.0,24.9,"03:24:08",1
"16/08/29","03:40",0.0,26.3,76.6,986.8,69.6,0.7,2.2,37.1,0.00,21.9,24.9,"03:33:44",1
"16/08/29","03:50",0.0,26.3,76.6,986.8,67.8,0.7,2.1,55.3,0.00,21.9,24.9,"03:47:20",1
"16/08/29","04:00",0.0,26.3,76.4,986.3,73.6,0.7,1.8,129.5,0.00,21.9,24.9,"03:55:52",1
"16/08/29","04:10",0.0,26.3,76.4,986.3,72.6,0.7,2.4,142.7,0.00,21.9,25.0,"04:03:28",1
"16/08/29","04:20",0.0,26.2,76.7,986.3,72.3,0.7,1.9,79.6,0.00,21.8,24.8,"04:18:16",1
"16/08/29","04:30",0.0,26.2,77.2,986.1,84.8,0.7,2.0,149.6,0.00,21.9,24.7,"04:26:08",1
"16/08/29","04:40",0.0,26.2,77.3,986.6,142.0,0.6,1.4,101.9,0.00,22.0,24.9,"04:39:44",1
"16/08/29","04:50",0.0,26.2,77.6,986.3,91.6,0.6,1.9,64.3,0.00,22.0,24.7,"04:47:44",1
"16/08/29","05:00",0.0,26.3,77.4,986.3,66.3,0.7,1.7,74.8,0.00,22.1,24.8,"04:52:32",1
"16/08/29","05:10",0.0,26.3,77.4,986.6,96.7,0.7,2.0,123.0,0.00,22.1,24.7,"05:04:32",1
"16/08/29","05:20",0.0,26.2,77.9,987.3,84.7,0.3,1.0,128.1,0.00,22.1,24.9,"05:16:16",1
"16/08/29","05:30",0.0,26.2,78.4,986.8,43.4,0.3,1.1,104.7,0.00,22.2,24.8,"05:21:04",1
"16/08/29","05:40",0.0,26.1,78.6,987.0,46.1,0.2,0.9,76.6,0.00,22.1,24.8,"05:30:32",1
"16/08/29","05:50",0.0,26.1,79.1,986.8,43.0,0.3,1.0,56.1,0.00,22.2,24.7,"05:47:44",1
"16/08/29","06:00",0.0,26.1,79.2,986.8,47.8,0.5,1.4,120.9,0.00,22.3,24.7,"05:57:44",1
"16/08/29","06:10",0.0,26.1,79.2,986.8,174.6,0.5,1.7,84.2,0.00,22.3,24.9,"06:01:12",1
"16/08/29","06:20",0.0,26.0,79.2,987.0,106.9,0.5,1.4,179.4,0.00,22.2,24.9,"06:16:08",1
"16/08/29","06:30",0.0,26.1,79.1,986.8,94.4,0.5,1.2,90.9,0.00,22.2,24.9,"06:24:00",1
"16/08/29","06:40",0.0,26.2,79.1,987.0,113.0,0.6,1.8,101.0,0.00,22.3,24.9,"06:34:24",1
"16/08/29","06:50",0.0,26.3,79.1,987.3,128.7,0.6,2.0,148.0,0.00,22.4,25.0,"06:44:32",1
"16/08/29","07:00",0.0,26.3,78.7,987.0,94.3,0.6,1.6,98.4,0.00,22.3,24.7,"06:51:52",1
"16/08/29","07:10",0.0,26.4,78.2,987.3,89.3,0.5,1.3,196.6,0.00,22.3,24.8,"07:04:40",1
"16/08/29","07:20",0.0,26.5,77.7,987.3,110.5,0.3,1.4,110.3,0.00,22.3,25.0,"07:18:48",1
"16/08/29","07:30",0.0,26.7,77.0,986.8,148.2,0.7,2.2,103.1,0.00,22.4,24.9,"07:25:20",1
"16/08/29","07:40",0.0,26.8,76.6,987.3,127.3,0.5,1.6,123.3,0.00,22.4,24.9,"07:30:32",1
"16/08/29","07:50",0.0,26.9,76.2,987.0,130.6,0.5,2.2,111.2,0.00,22.4,24.8,"07:45:52",1
"16/08/29","08:00",0.0,27.0,75.7,986.6,121.4,0.5,1.3,74.1,0.00,22.4,24.9,"07:53:52",1
"16/08/29","08:10",0.0,27.2,74.8,986.8,139.1,0.6,2.1,162.6,0.01,22.4,25.1,"08:05:44",1
"16/08/29","08:20",0.0,27.3,74.5,987.3,141.5,0.7,2.0,127.7,0.00,22.4,25.0,"08:14:32",1
"16/08/29","08:30",0.0,27.4,74.2,986.8,173.7,0.7,1.7,109.9,0.02,22.4,25.0,"08:23:44",1
"16/08/29","08:40",0.0,27.5,73.5,986.8,144.6,0.8,2.2,149.6,0.03,22.4,25.0,"08:38:56",1
"16/08/29","08:50",0.0,27.6,73.1,986.8,163.6,1.1,2.5,136.6,0.01,22.4,25.2,"08:42:00",1
"16/08/29","09:00",0.0,27.5,73.7,986.3,157.7,0.5,1.4,193.1,0.01,22.4,25.0,"08:50:08",1
"16/08/29","09:10",0.0,27.5,73.4,986.6,124.2,0.6,1.7,111.8,0.01,22.4,25.2,"09:09:52",1
"16/08/29","09:20",0.0,27.5,74.3,986.6,70.8,0.2,1.0,67.8,0.00,22.6,25.1,"09:17:44",1
"16/08/29","09:30",0.0,27.5,74.7,986.3,97.5,0.2,0.9,66.8,0.00,22.6,25.2,"09:21:44",1
"16/08/29","09:40",0.0,27.4,77.7,986.1,329.2,0.7,1.3,336.6,0.01,23.2,25.2,"09:30:16",1
"16/08/29","09:50",0.0,27.1,79.8,986.1,296.3,0.3,0.9,338.7,0.02,23.3,25.0,"09:40:08",1
"16/08/29","10:00",0.0,26.6,81.7,985.9,279.5,0.5,1.4,224.7,0.00,23.3,25.2,"09:53:04",1
"16/08/29","10:10",0.0,26.1,84.0,985.9,275.9,0.5,1.7,231.5,0.00,23.2,25.3,"10:08:16",1
"16/08/29","10:20",0.0,25.8,85.7,985.9,293.6,0.3,0.9,189.2,0.01,23.3,25.3,"10:11:12",1
"16/08/29","10:30",0.0,25.6,86.4,986.1,294.3,0.5,1.0,298.6,0.00,23.2,25.2,"10:28:32",1
"16/08/29","10:40",0.0,25.6,86.9,985.6,290.0,0.3,1.0,357.4,0.02,23.3,25.1,"10:33:12",1
"16/08/29","10:50",0.0,25.8,86.8,985.4,299.9,0.3,0.9,345.0,0.03,23.5,25.2,"10:46:00",1
"16/08/29","11:00",0.0,26.0,86.9,985.9,304.2,0.5,1.4,238.8,0.03,23.7,25.4,"10:58:32",1
"16/08/29","11:10",0.0,26.0,86.2,985.6,331.8,0.6,1.8,231.7,0.03,23.6,25.4,"11:04:32",1
"16/08/29","11:20",0.0,26.2,86.0,985.2,323.1,0.7,1.6,353.0,0.01,23.7,25.4,"11:14:48",1
"16/08/29","11:30",0.0,26.1,85.6,984.9,249.9,0.8,1.4,222.3,0.00,23.5,25.3,"11:26:32",1
"16/08/29","11:40",0.0,26.6,81.1,984.7,141.5,1.0,2.1,340.8,0.02,23.1,25.4,"11:30:16",1
"16/08/29","11:50",0.0,27.5,76.9,984.9,186.9,1.3,3.5,192.3,0.02,23.1,25.4,"11:41:12",1
"16/08/29","12:00",0.0,27.4,79.2,984.7,234.1,0.7,1.7,185.5,0.02,23.5,25.5,"11:52:24",1
"16/08/29","12:10",0.0,26.9,82.3,984.7,320.8,0.6,1.2,346.5,0.02,23.7,25.4,"12:02:48",1
"16/08/29","12:20",0.2,26.5,84.0,984.7,336.4,0.7,1.2,350.0,0.00,23.6,25.4,"12:12:08",1
"16/08/29","12:30",0.4,26.3,83.0,984.9,157.4,1.6,6.6,201.9,0.01,23.2,25.4,"12:23:28",1
"16/08/29","12:40",0.8,26.0,85.4,984.9,155.5,1.0,2.5,117.3,0.01,23.4,25.3,"12:30:40",1
"16/08/29","12:50",0.8,25.8,87.0,984.7,122.9,0.5,1.6,121.4,0.02,23.5,25.3,"12:41:44",1
"16/08/29","13:00",1.0,25.7,88.1,984.9,50.7,0.6,1.2,112.2,0.02,23.6,25.4,"12:50:08",1
"16/08/29","13:10",0.6,25.5,89.0,984.9,42.7,0.5,1.2,44.3,0.00,23.6,25.4,"13:05:22",1
"16/08/29","13:20",0.6,25.4,90.0,984.4,54.7,0.6,1.3,53.2,0.02,23.7,25.2,"13:15:36",1
"16/08/29","13:30",0.8,25.3,90.5,984.7,49.6,0.5,1.4,44.7,0.02,23.7,25.3,"13:21:20",1
"16/08/29","13:40",0.6,25.2,90.0,984.9,60.4,0.6,1.4,115.7,0.02,23.5,25.3,"13:39:20",1
"16/08/29","13:50",0.8,24.9,90.2,984.9,68.5,0.7,1.8,62.0,0.02,23.2,25.3,"13:41:20",1
"16/08/29","14:00",0.4,24.8,90.1,985.2,89.6,1.0,2.4,99.9,0.03,23.1,25.2,"13:56:08",1
"16/08/29","14:10",0.8,24.7,90.3,985.4,79.9,0.5,1.8,116.4,0.04,23.0,25.3,"14:01:20",1
"16/08/29","14:20",0.8,24.6,90.6,985.2,29.8,0.5,1.6,3.2,0.02,23.0,25.3,"14:14:24",1
"16/08/29","14:30",1.4,24.4,90.5,984.9,0.3,0.7,1.4,18.9,0.01,22.8,25.2,"14:25:52",1
"16/08/29","14:40",2.4,24.1,91.1,985.4,8.9,0.7,1.7,349.3,0.00,22.6,25.4,"14:30:16",1
"16/08/29","14:50",2.2,24.0,91.3,984.9,352.0,0.6,1.8,322.7,0.00,22.5,25.2,"14:40:16",1
"16/08/29","15:00",1.8,23.9,91.7,984.7,16.1,0.5,1.2,357.9,0.01,22.5,25.1,"14:50:08",1
"16/08/29","15:10",1.8,23.9,92.1,984.9,317.8,0.3,1.1,344.0,0.00,22.6,25.2,"15:00:56",1
"16/08/29","15:20",1.4,23.8,92.3,984.9,298.6,0.3,0.6,316.4,0.00,22.5,25.1,"15:11:28",1
"16/08/29","15:30",3.0,23.7,92.8,985.4,230.0,1.3,3.3,228.9,0.00,22.5,25.0,"15:26:24",1
"16/08/29","15:40",3.4,23.5,93.0,985.2,273.2,0.5,1.6,194.9,0.00,22.3,24.9,"15:35:52",1
"16/08/29","15:50",1.4,23.2,92.0,984.9,260.5,0.6,1.6,211.6,0.01,21.9,24.9,"15:46:16",1
"16/08/29","16:00",0.8,22.9,91.8,984.9,327.1,0.7,3.4,357.3,0.01,21.5,25.1,"15:54:48",1
"16/08/29","16:10",0.4,22.6,91.4,985.4,306.6,0.7,3.1,206.5,0.02,21.2,24.9,"16:01:52",1
"16/08/29","16:20",0.4,22.7,91.4,985.6,290.6,0.6,1.4,240.4,0.02,21.3,24.9,"16:16:32",1
"16/08/29","16:30",0.8,22.5,91.3,985.9,324.2,0.7,2.2,358.2,0.00,21.1,24.8,"16:20:48",1
"16/08/29","16:40",1.4,22.5,91.8,986.1,344.3,0.6,1.8,235.5,0.00,21.1,24.8,"16:34:32",1
"16/08/29","16:50",1.8,22.3,92.1,985.9,351.2,0.8,1.8,336.7,0.00,21.0,24.7,"16:48:18",1
"16/08/29","17:00",2.2,22.2,92.7,985.9,351.8,0.6,2.0,357.3,0.00,21.0,24.6,"16:52:48",1
"16/08/29","17:10",1.4,22.1,92.9,985.9,283.8,0.3,1.1,325.0,0.00,20.9,24.7,"17:01:28",1
"16/08/29","17:20",1.8,22.2,93.4,985.9,157.4,0.1,0.6,157.5,0.00,21.1,24.5,"17:12:32",1
"16/08/29","17:30",1.6,22.1,93.6,985.6,304.8,0.3,1.2,340.1,0.00,21.1,24.5,"17:26:48",1
"16/08/29","17:40",1.0,22.1,93.8,985.9,308.4,0.5,0.9,333.0,0.00,21.1,24.6,"17:30:24",1
"16/08/29","17:50",0.8,22.0,94.0,985.6,323.3,0.7,1.0,344.4,0.00,21.0,24.4,"17:49:20",1
"16/08/29","18:00",1.4,21.9,94.3,986.1,328.2,0.3,1.3,339.5,0.00,21.0,24.4,"17:50:08",1
"16/08/29","18:10",1.2,21.9,94.4,985.9,4.2,0.3,0.8,341.6,0.00,21.0,24.2,"18:00:48",1
"16/08/29","18:20",0.6,21.8,94.6,986.3,71.9,0.1,0.5,30.4,0.00,20.9,24.3,"18:18:32",1
"16/08/29","18:30",1.0,21.8,94.8,986.1,336.2,0.2,0.6,312.2,0.00,21.0,24.1,"18:24:48",1
"16/08/29","18:40",0.8,21.8,94.9,986.1,325.7,0.5,0.9,334.7,0.00,21.0,24.3,"18:35:36",1
"16/08/29","18:50",0.8,21.8,95.0,986.6,292.6,0.2,0.5,256.6,0.00,21.0,24.1,"18:43:20",1
"16/08/29","19:00",1.0,21.8,95.0,986.3,45.0,0.3,0.9,40.5,0.00,21.0,24.1,"18:52:16",1
"16/08/29","19:10",0.8,21.6,94.9,987.0,192.4,1.0,1.8,208.7,0.00,20.8,24.0,"19:06:08",1
"16/08/29","19:20",2.2,21.3,95.0,986.8,213.2,1.7,3.3,206.6,0.00,20.5,23.9,"19:12:58",1
"16/08/29","19:30",1.0,21.2,95.2,987.0,206.1,0.8,1.7,229.3,0.00,20.4,23.8,"19:21:28",1
"16/08/29","19:40",1.2,21.2,95.3,987.0,179.2,0.6,1.2,173.6,0.00,20.5,23.9,"19:33:20",1
"16/08/29","19:50",0.6,21.1,95.3,987.0,161.1,0.7,2.0,199.2,0.00,20.4,23.8,"19:46:32",1
"16/08/29","20:00",0.8,21.1,95.3,987.0,194.4,0.7,1.8,189.3,0.00,20.4,23.8,"19:58:18",1
"16/08/29","20:10",1.0,21.1,95.4,987.5,203.8,1.2,2.2,219.3,0.00,20.4,23.8,"20:03:52",1
"16/08/29","20:20",0.8,21.2,95.5,987.8,204.1,1.0,1.9,208.8,0.00,20.5,23.8,"20:10:16",1
"16/08/29","20:30",1.8,21.2,95.5,987.8,321.3,0.5,1.2,351.7,0.00,20.5,23.6,"20:28:56",1
"16/08/29","20:40",3.0,21.2,95.5,987.5,345.0,1.0,2.0,1.5,0.00,20.5,23.4,"20:31:46",1
"16/08/29","20:50",1.4,21.1,95.6,987.0,193.6,0.3,0.8,136.1,0.00,20.4,23.3,"20:45:52",1
"16/08/29","21:00",0.8,21.0,95.5,987.0,268.5,0.2,0.6,343.1,0.00,20.3,23.4,"20:55:36",1
"16/08/29","21:10",0.8,20.9,95.7,987.5,148.8,0.1,0.5,115.2,0.00,20.2,23.3,"21:08:56",1
"16/08/29","21:20",1.6,20.9,95.7,987.3,48.4,0.6,1.6,345.4,0.00,20.2,23.4,"21:17:44",1
"16/08/29","21:30",1.4,20.8,95.7,987.3,345.0,0.7,1.7,21.8,0.00,20.1,23.3,"21:22:48",1
"16/08/29","21:40",1.0,20.8,95.9,987.5,276.3,0.1,0.5,340.3,0.00,20.2,23.3,"21:39:52",1
"16/08/29","21:50",1.4,20.8,95.9,987.3,346.4,1.0,1.6,0.5,0.00,20.2,23.3,"21:47:52",1
"16/08/29","22:00",1.0,20.7,95.9,987.3,282.9,0.5,1.4,176.5,0.00,20.1,23.4,"21:59:44",1
"16/08/29","22:10",1.2,20.8,96.1,986.8,238.3,0.5,1.6,347.0,0.00,20.2,23.2,"22:09:36",1
"16/08/29","22:20",1.4,20.8,96.0,987.0,24.6,0.5,1.7,356.6,0.00,20.2,23.2,"22:10:24",1
"16/08/29","22:30",1.0,20.7,96.1,987.0,334.0,0.7,1.4,334.3,0.00,20.1,23.4,"22:27:04",1
"16/08/29","22:40",0.8,20.7,96.2,986.8,337.2,0.3,1.1,38.5,0.00,20.1,23.1,"22:35:20",1
"16/08/29","22:50",1.2,20.7,96.2,987.0,317.7,0.6,1.0,332.1,0.00,20.1,23.1,"22:40:02",1
"16/08/29","23:00",1.4,20.7,96.2,986.6,347.3,0.6,1.0,347.4,0.00,20.1,23.0,"22:56:40",1
"16/08/29","23:10",1.0,20.7,96.3,987.3,334.1,0.3,1.3,356.7,0.00,20.1,23.1,"23:00:08",1
"16/08/29","23:20",1.2,20.7,96.3,987.3,314.8,0.5,1.1,334.5,0.00,20.1,23.0,"23:13:28",1
"16/08/29","23:30",0.6,20.7,96.4,987.8,245.9,0.2,0.6,193.0,0.00,20.1,23.1,"23:21:04",1
"16/08/29","23:40",0.8,20.8,96.5,987.0,170.3,0.3,1.1,192.4,0.00,20.3,23.4,"23:39:44",1
"16/08/29","23:50",0.4,20.8,96.4,987.3,240.9,0.6,1.2,214.2,0.00,20.2,22.9,"23:40:40",1
"16/08/29","24:00",1.0,20.9,96.5,987.0,341.3,0.8,1.7,11.2,0.00,20.4,22.9,"23:58:48",1
